Bloomington, IN

12:06 AM EDT on September 20, 2019 (GMT -0400)
Monroe County

Weather History for KBMG - August, 2019

Change the Weather History Date:

Wednesday, August 21, 2019

  Actual Average Record
Temperature  
Mean Temperature 76 °F 73 °F  
Max Temperature 84 °F 85 °F 90 °F (2003)
Min Temperature 67 °F 61 °F 51 °F (1999)
Degree Days  
Heating Degree Days 0 0  
Month to date heating degree days 0 0  
Since 1 June heating degree days 14 17  
Since 1 July heating degree days 0 2  
Cooling Degree Days 10 8  
Month to date cooling degree days 208 183  
Year to date cooling degree days 915 749  
Since 1 June cooling degree days 784 667  
Growing Degree Days 26 (Base 50)    
Moisture  
Dew Point 68 °F    
Average Humidity 86    
Maximum Humidity 97    
Minimum Humidity 65    
Precipitation  
Precipitation 0.00 in 0.12 in 0.45 in (2010)
Month to date precipitation 1.57 2.25  
Year to date precipitation 33.61 31.92  
Sea Level Pressure  
Sea Level Pressure 30.00 in    
Wind  
Wind Speed 4 mph ()    
Max Wind Speed 10 mph    
Max Gust Speed 15 mph    
Visibility 6.3 miles    
Events Fog    
T = Trace of Precipitation, MM = Missing Value Source: Averaged Metar Reports

Daily Weather History Graph

Daily Weather History Graph

Search for Another Location

Airport or City:

Astronomy

Aug. 21, 2019 Rise Set
Actual Time 7:04 AM EDT 8:33 PM EDT
Civil Twilight 6:36 AM EDT 9:01 PM EDT
Nautical Twilight 6:02 AM EDT 9:35 PM EDT
Astronomical Twilight 5:27 AM EDT 10:11 PM EDT
Moon 11:53 PM EDT (8/21) 12:38 PM EDT (8/21)
Length of Visible Light 14h 24m
Length of Day
13h 28m
Waning Gibbous, 69% of the Moon is Illuminated
Aug 21
Waning Gibbous
Aug 23
Last Quarter
Aug 30
New
Sep 5
First Quarter
Sep 14
Full

Hourly Weather History & Observations

Time (EDT) Temp. Heat Index Dew Point Humidity Pressure Visibility Wind Dir Wind Speed Gust Speed Precip Events Conditions
12:53 AM 70.0 °F - 66.9 °F 90% 30.00 in 10.0 mi WSW 5.8 mph - N/A   Mostly Cloudy
1:37 AM 69.1 °F - 66.9 °F 93% 30.03 in 9.0 mi WSW 3.5 mph - N/A   Mostly Cloudy
1:53 AM 69.1 °F - 66.9 °F 93% 30.00 in 9.0 mi WSW 4.6 mph - N/A   Mostly Cloudy
2:01 AM 69.1 °F - 66.0 °F 90% 30.03 in 9.0 mi SW 3.5 mph - N/A   Scattered Clouds
2:53 AM 68.0 °F - 66.0 °F 93% 30.01 in 8.0 mi SW 3.5 mph - N/A   Partly Cloudy
3:49 AM 68.0 °F - 64.4 °F 88% 30.01 in 6.0 mi SW 4.6 mph - N/A   Mostly Cloudy
3:53 AM 68.0 °F - 66.0 °F 93% 30.00 in 6.0 mi SW 4.6 mph - N/A   Mostly Cloudy
4:53 AM 68.0 °F - 66.0 °F 93% 29.99 in 4.0 mi SW 5.8 mph - N/A   Overcast
5:34 AM 68.0 °F - 66.0 °F 93% 30.00 in 2.5 mi WSW 4.6 mph - N/A   Overcast
5:53 AM 68.0 °F - 66.0 °F 93% 29.98 in 2.5 mi SW 3.5 mph - N/A   Overcast
6:09 AM 68.0 °F - 66.0 °F 93% 29.99 in 3.0 mi Calm Calm - N/A   Overcast
6:38 AM 68.0 °F - 66.0 °F 93% 29.99 in 2.0 mi SW 4.6 mph - N/A   Overcast
6:45 AM 68.0 °F - 66.0 °F 93% 29.99 in 1.2 mi SW 4.6 mph - N/A   Overcast
6:53 AM 68.0 °F - 66.0 °F 93% 29.97 in 1.0 mi SW 5.8 mph - N/A   Overcast
7:03 AM 68.0 °F - 66.0 °F 93% 29.99 in 0.8 mi SW 4.6 mph - N/A   Mist
7:21 AM 68.0 °F - 66.0 °F 93% 29.99 in 0.2 mi SW 3.5 mph - N/A Fog Fog
7:53 AM 68.0 °F - 66.0 °F 93% 29.98 in 0.2 mi SSW 5.8 mph - N/A Fog Fog
8:05 AM 68.0 °F - 66.9 °F 96% 30.00 in 0.5 mi SW 5.8 mph - N/A Fog Fog
8:53 AM 69.1 °F - 66.9 °F 93% 29.99 in 0.5 mi SW 6.9 mph - N/A Fog Fog
9:10 AM 69.1 °F - 66.9 °F 93% 30.02 in 2.0 mi SW 8.1 mph - N/A   Overcast
9:19 AM 69.1 °F - 66.9 °F 93% 30.02 in 3.0 mi WSW 8.1 mph - N/A   Overcast
9:53 AM 69.1 °F - 66.9 °F 93% 30.01 in 6.0 mi SW 5.8 mph - N/A   Overcast
10:53 AM 70.0 °F - 68.0 °F 93% 30.02 in 6.0 mi Variable 4.6 mph - N/A   Overcast
11:02 AM 71.1 °F - 68.0 °F 90% 30.03 in 7.0 mi SW 5.8 mph - N/A   Overcast
11:53 AM 73.0 °F - 68.0 °F 84% 30.02 in 9.0 mi Variable 4.6 mph - N/A   Overcast
12:10 PM 73.9 °F - 68.0 °F 82% 30.03 in 10.0 mi West 6.9 mph - N/A   Overcast
12:53 PM 77.0 °F - 69.1 °F 76% 30.01 in 10.0 mi West 4.6 mph - N/A   Mostly Cloudy
1:09 PM 77.0 °F - 68.0 °F 74% 30.03 in 10.0 mi Calm Calm - N/A   Mostly Cloudy
1:19 PM 79.0 °F - 69.1 °F 72% 30.03 in 10.0 mi Calm Calm - N/A   Scattered Clouds
1:53 PM 79.0 °F - 70.0 °F 74% 30.01 in 10.0 mi WSW 8.1 mph - N/A   Scattered Clouds
2:41 PM 80.1 °F 83.2 °F 70.0 °F 71% 30.02 in 10.0 mi WSW 3.5 mph - N/A   Mostly Cloudy
2:53 PM 81.0 °F 84.4 °F 70.0 °F 69% 30.00 in 10.0 mi Calm Calm - N/A   Scattered Clouds
3:53 PM 82.9 °F 88.0 °F 72.0 °F 69% 29.99 in 10.0 mi WNW 5.8 mph - N/A   Partly Cloudy
4:53 PM 82.9 °F 87.5 °F 71.1 °F 67% 29.98 in 10.0 mi WNW 8.1 mph - N/A   Partly Cloudy
5:53 PM 82.9 °F 87.0 °F 70.0 °F 65% 29.97 in 10.0 mi North 6.9 mph - N/A   Partly Cloudy
6:53 PM 82.0 °F 85.9 °F 70.0 °F 67% 29.95 in 10.0 mi NW 3.5 mph - N/A   Clear
8:53 PM 73.0 °F - 70.0 °F 90% 29.95 in 9.0 mi Calm Calm - N/A   Clear
9:53 PM 72.0 °F - 69.1 °F 91% 29.96 in 8.0 mi Calm Calm - N/A   Clear
10:53 PM 72.0 °F - 69.1 °F 91% 29.98 in 10.0 mi Calm Calm - N/A   Clear
11:53 PM 70.0 °F - 66.9 °F 90% 29.97 in 8.0 mi Calm Calm - N/A   Clear